Ukiah, CA

5:31 AM PDT on March 23, 2017 (GMT -0700)
Ukiah Municipal

Weather History for KUKI - April, 2013

Change the Weather History Date:

Sunday, April 28, 2013

  Actual Average Record
Temperature  
Mean Temperature 68 °F 58 °F  
Max Temperature 91 °F 72 °F 93 °F (1957)
Min Temperature 45 °F 44 °F 29 °F (1913)
Degree Days  
Heating Degree Days 0 7  
Month to date heating degree days 286  
Since 1 July heating degree days 2933  
Cooling Degree Days 2 1  
Month to date cooling degree days 6  
Year to date cooling degree days 6  
Growing Degree Days 18 (Base 50)    
Moisture  
Dew Point 43 °F    
Average Humidity 53    
Maximum Humidity 86    
Minimum Humidity 19    
Precipitation  
Precipitation 0.00 in 0.06 in 1.43 in (2003)
Month to date precipitation 1.08 2.42  
Year to date precipitation 5.13 21.49  
Since 1 July precipitation 27.83  
Snow  
Snow 0.00 in - - ()
Month to date snowfall 0.0  
Since 1 July snowfall 0.0  
Snow Depth -    
Sea Level Pressure  
Sea Level Pressure 29.99 in    
Wind  
Wind Speed 2 mph (NNW)    
Max Wind Speed 13 mph    
Max Gust Speed 16 mph    
Visibility 10 miles    
Events      
T = Trace of Precipitation, MM = Missing Value Source: NWS Daily Summary

Daily Weather History Graph

Daily Weather History Graph

Search for Another Location

Airport or City:

Trip Planner

Search our weather history database for the weather conditions in past years. The results will help you decide how hot, cold, wet, or windy it might be!

Date:

Astronomy

Apr. 28, 2013 Rise Set
Actual Time 6:17 AM PDT 8:03 PM PDT
Civil Twilight 5:49 AM PDT 8:31 PM PDT
Nautical Twilight 5:14 AM PDT 9:06 PM PDT
Astronomical Twilight 4:37 AM PDT 9:44 PM PDT
Moon 11:38 PM PDT (4/28) 8:40 AM PDT (4/28)
Length of Visible Light 14h 42m
Length of Day
13h 45m
Waning Gibbous, 88% of the Moon is Illuminated
Apr 28
Waning Gibbous
May 2
Last Quarter
May 9
New
May 17
First Quarter
May 24
Full

Hourly Weather History & Observations

Time (PDT) Temp. Dew Point Humidity Pressure Visibility Wind Dir Wind Speed Gust Speed Precip Events Conditions
12:56 AM 55.0 °F 43.0 °F 64% 30.07 in 10.0 mi Calm Calm - N/A   Clear
1:56 AM 51.1 °F 44.1 °F 77% 30.07 in 10.0 mi Calm Calm - N/A   Clear
2:56 AM 50.0 °F 44.1 °F 80% 30.06 in 10.0 mi Calm Calm - N/A   Clear
3:56 AM 46.9 °F 43.0 °F 86% 30.06 in 10.0 mi Calm Calm - N/A   Clear
4:56 AM 48.0 °F 42.1 °F 80% 30.05 in 10.0 mi Calm Calm - N/A   Clear
5:56 AM 48.0 °F 42.1 °F 80% 30.04 in 10.0 mi Calm Calm - N/A   Clear
6:56 AM 46.9 °F 42.1 °F 83% 30.06 in 10.0 mi Calm Calm - N/A   Clear
7:56 AM 53.1 °F 43.0 °F 69% 30.05 in 10.0 mi Calm Calm - N/A   Clear
8:56 AM 62.1 °F 42.1 °F 48% 30.05 in 10.0 mi North 3.5 mph - N/A   Clear
9:56 AM 66.9 °F 39.9 °F 37% 30.04 in 10.0 mi Calm Calm - N/A   Clear
10:56 AM 73.0 °F 39.9 °F 30% 30.04 in 10.0 mi Calm Calm - N/A   Clear
11:56 AM 79.0 °F 39.0 °F 24% 30.02 in 10.0 mi Variable 4.6 mph - N/A   Clear
12:56 PM 84.0 °F 39.9 °F 21% 30.00 in 10.0 mi Variable 3.5 mph - N/A   Clear
1:56 PM 87.1 °F 44.1 °F 22% 29.97 in 10.0 mi Variable 3.5 mph - N/A   Clear
2:56 PM 88.0 °F 46.9 °F 24% 29.95 in 10.0 mi NW 10.4 mph - N/A   Clear
3:56 PM 89.1 °F 41.0 °F 19% 29.93 in 10.0 mi NNW 6.9 mph - N/A   Clear
4:56 PM 89.1 °F 39.9 °F 18% 29.91 in 10.0 mi Variable 6.9 mph - N/A   Clear
5:56 PM 87.1 °F 44.1 °F 22% 29.91 in 10.0 mi Calm Calm - N/A   Clear
6:56 PM 84.0 °F 44.1 °F 25% 29.90 in 10.0 mi NE 4.6 mph - N/A   Clear
7:56 PM 77.0 °F 44.1 °F 31% 29.91 in 10.0 mi North 6.9 mph - N/A   Clear
8:56 PM 70.0 °F 45.0 °F 41% 29.92 in 10.0 mi Variable 3.5 mph - N/A   Clear
9:56 PM 66.0 °F 46.0 °F 48% 29.94 in 10.0 mi Calm Calm - N/A   Clear
10:56 PM 63.0 °F 46.9 °F 56% 29.94 in 10.0 mi Calm Calm - N/A   Clear
11:56 PM 61.0 °F 46.0 °F 58% 29.94 in 10.0 mi Calm Calm - N/A   Clear